Regional Weather Roundup
Issued by NWS

Home | Current Version | Previous Version | Text Only | Print | Product List | Glossary Off
Versions: 1 2 3 4 5 6 7 8 9 10 11 12 13 14 15 16 17 18 19 20 21 22 23 24 25 26 27 28 29 30 31 32 33 34 35 36 37 38 39 40 41 42 43 44 45 46 47 48 49 50

000
ASUS43 KLOT 190802
RWRIL

ILLINOIS REGIONAL WEATHER ROUNDUP
NATIONAL WEATHER SERVICE CHICAGO/ROMEOVILLE IL
300 AM CDT SUN APR 19 2015

NOTE: "FAIR" INDICATES FEW OR NO CLOUDS BELOW 12,000 FEET WITH NO
SIGNIFICANT WEATHER AND/OR OBSTRUCTIONS TO VISIBILITY.

* THESE STATIONS ARE NOT UNDER NWS QUALITY CONTROL. THEY ALSO MAY NOT
  REPORT WEATHER SUCH AS PRECIPITATION OR FOG.

ILZ001-002-007-009-015-016-024-190900-
NORTHWEST ILLINOIS

CITY           SKY/WX    TMP DP  RH WIND       PRES   REMARKS
MOLINE         MOCLDY    53  37  54 E10       29.83F
STERLING*      CLOUDY    55  39  54 E14       29.86F
$$

ILZ003-004-008-010-011-017-018-190900-
NORTH CENTRAL ILLINOIS

CITY           SKY/WX    TMP DP  RH WIND       PRES   REMARKS
ROCKFORD       CLOUDY    56  32  40 E9        29.91F
$$

ILZ005-006-012>014-019>023-190900-
NORTHEAST ILLINOIS

CITY           SKY/WX    TMP DP  RH WIND       PRES   REMARKS
CHICAGO-OHARE  CLOUDY    55  25  31 E10G23    29.91F
CHICAGO-MIDWAY CLOUDY    57  28  33 E7        29.91F
AURORA         CLOUDY    55  30  38 E9        29.89F
WAUKEGAN       CLOUDY    45  34  65 E7        29.95F
DUPAGE AIRPORT CLOUDY    54  29  38 E7        29.90F
WHEELING       CLOUDY    50  31  48 E7        29.94F
NORTHERLY ISL    N/A     51  34  52 NE5         N/A
$$

LMZ740>746-190900-
SOUTHERN LAKE MICHIGAN

STATION/POSITION SKY/WX   TEMP    WIND        PRES    VSBY  WAVE
                          AIR SEA DIR/SP/G                  HT/PER
                          (F)     (DEG/KT/KT) (MB)    (MI)  (FT/S)
HARRISON CRIB              49     100/  6/  7   N/A
BURNHAM HARBOR             51      60/  5/  6   N/A
CALUMET HARBOR             54     100/  7/  9   N/A
BURNS HARBOR               58     120/ 17/ 23 1014.2F
MICHIGAN CITY              57      80/ 13/ 19   N/A
MICHIGAN CITY 6N           54 45  130/ 14/ 21   N/A           3/ 6
$$

ILZ025>027-034>036-040-047-049-050-058-095>099-190900-
WEST-CENTRAL ILLINOIS

CITY           SKY/WX    TMP DP  RH WIND       PRES   REMARKS
QUINCY         CLOUDY    60  55  83 E7        29.78F
$$

ILZ028>032-037-038-041>044-048-051>054-059>061-190900-
CENTRAL ILLINOIS

CITY           SKY/WX    TMP DP  RH WIND       PRES   REMARKS
DECATUR        MOCLDY    58  49  72 E8        29.83F
PEORIA         MOCLDY    58  43  57 E12       29.83F
SPRINGFIELD    PTCLDY    61  49  64 E7        29.81F
TAYLORVILLE    NOT AVBL
$$

ILZ033-039-045-046-055>057-062-063-190900-
EAST-CENTRAL ILLINOIS

CITY           SKY/WX    TMP DP  RH WIND       PRES   REMARKS
CHAMPAIGN      CLOUDY    58  50  75 E10       29.84F
MATTOON        CLOUDY    66  46  48 E12       29.81F
$$

ILZ079-100>102-190900-
SOUTHWEST ILLINOIS

CITY           SKY/WX    TMP DP  RH WIND       PRES   REMARKS
BELLEVILLE     MOCLDY    61  56  84 VRB2      29.75F
CAHOKIA*       MOCLDY    63  56  78 CALM      29.75F
$$

ILZ064>066-069>071-074>076-080>082-084>086-088>090-092>094-190900-
SOUTH-CENTRAL ILLINOIS

CITY           SKY/WX    TMP DP  RH WIND       PRES   REMARKS
CARBONDALE     CLOUDY    66  55  67 SE8       29.75F
MT. VERNON     CLOUDY    64  48  55 E6        29.78F
$$

ILZ067-068-072-073-078-083-087-091-190900-
SOUTHEAST ILLINOIS

CITY           SKY/WX    TMP DP  RH WIND       PRES   REMARKS
LAWRENCEVILLE  CLOUDY    65  48  54 E8        29.79F
$$

ABBREVIATIONS USED IN REMARKS
   TC - TEMPERATURE IN CELSIUS
  WCI - WIND CHILL INDEX
   HX - HEAT INDEX
  VSB - VISIBILITY
$$




USA.gov is the U.S. government's official web portal to all federal, state and local government web resources and services.